Skip Page Navigation
NASA JPL Caltech
NASA Logo - Jet Propulsion Laboratory + View the NASA Portal
+ Center for Near-Earth Object Studies
JPL Home Earth Solar System Stars & Galaxies Technology
JPL Solar System Dynamics
BODIES ORBITS EPHEMERIDES TOOLS PHYSICAL DATA DISCOVERY FAQ SITE MAP
IMPORTANT: The SSD Announcement email list is now available. Major changes are coming in the near future, including possible hostname and/or URL changes. To be notified of such changes, subscribe to this email list.

Please visit this page for more details.


JPL Small-Body Database Browser
Search: [ help ]  
300371 (2007 RS130)
Classification: Main-belt Asteroid          SPK-ID: 2300371
Ephemeris | Orbit Diagram | Orbital Elements | Mission Design | Physical Parameters | Discovery Circumstances ]

[ show orbit diagram ]
Orbital Elements at Epoch 2459000.5 (2020-May-31.0) TDB
Reference: JPL 10 (heliocentric ecliptic J2000)
 Element Value Uncertainty (1-sigma)   Units 
e .234542289508932 2.1459e-07  
a 2.565780783885511 4.0001e-08 au
q 1.963996684454981 5.7904e-07 au
i 4.746066715045709 6.8279e-06 deg
node 18.68429144124834 8.8157e-05 deg
peri 313.3489598741814 9.3478e-05 deg
M 57.19818229895282 2.3038e-05 deg
tp 2458761.989514744261
(2019-Oct-05.48951474)
9.3263e-05 TDB
period 1501.162646101047
4.11
3.5105e-05
9.611e-08
d
yr
n .2398141206983961 5.6081e-09 deg/d
Q 3.167564883316041 4.9382e-08 au
  Orbit Determination Parameters
   # obs. used (total)      167  
   data-arc span      5786 days (15.84 yr)  
   first obs. used      2003-10-21  
   last obs. used      2019-08-24  
   planetary ephem.      DE431  
   SB-pert. ephem.      SB431-N16  
   condition code      0  
   norm. resid. RMS      .57872  
   source      ORB  
   producer      Otto Matic  
   solution date      2019-Sep-24 05:49:03  

Additional Information
 Earth MOID = .957482 au 
 Jupiter MOID = 2.21757 au 
 T_jup = 3.389 
[ show covariance matrix ]

Ephemeris | Orbit Diagram | Orbital Elements | Mission Design | Physical Parameters | Discovery Circumstances ]

Physical Parameter Table
Parameter Symbol Value Units Sigma Reference Notes
absolute magnitude H 17.5   n/a MPO494600  

300371 (2007 RS130)          Discovered 2007-Sep-12 by Mt. Lemmon Survey at Mount Lemmon
Reference: 20111012/Numbers.arcLast Updated: 2011-10-13
Ephemeris | Orbit Diagram | Orbital Elements | Mission Design | Physical Parameters | Discovery Circumstances ]
ABOUT SSD CREDITS/AWARDS PRIVACY/COPYRIGHT GLOSSARY LINKS
FirstGov 2020-May-31 01:37 UT
(server date/time)  
NASA Home Page
Site Manager:   Ryan S. Park
Webmaster  Alan B. Chamberlin